Regional Weather Roundup
Issued by NWS Kansas City/Pleasant Hill, MO

Home | Current Version | Previous Version | Graphics & Text | Print | Product List | Glossary Off
Versions: 1 2 3 4 5 6 7 8 9 10 11 12 13 14 15 16 17 18 19 20 21 22 23 24 25 26 27

000
ASUS43 KEAX 270010
RWREAX

WEATHER ROUNDUP FOR EASTERN KANSAS AND NORTHWEST MISSOURI
NATIONAL WEATHER SERVICE KANSAS CITY/PLEASANT HILL MO
700 PM CDT WED APR 26 2017

KSZ040-057-103>105-MOZ028-029-037-043-270100-
...KANSAS CITY METROPOLITAN AREA...

CITY           SKY/WX    TMP DP  RH WIND       PRES   REMARKS
K.C. INTL      CLOUDY    47  37  68 NW12      29.60R
6HR MIN TEMP:  46; 6HR MAX TEMP:  50;

K.C. DOWNTOWN  CLOUDY    50  38  63 NW10      29.58S
6HR MIN TEMP:  48; 6HR MAX TEMP:  51; 6HR PCP: TRACE;

LEES SUMMIT    LGT RAIN  47  41  80 NW14      29.58S
6HR MIN TEMP:  45; 6HR MAX TEMP:  48; 6HR PCP:  0.02;

OLATHE - IXD   CLOUDY    48  38  68 NW14      29.61R
6HR MIN TEMP:  45; 6HR MAX TEMP:  49; 6HR PCP:  0.01;

OLATHE - OJC   CLOUDY    48  39  71 NW10G21   29.59R
6HR MIN TEMP:  45; 6HR MAX TEMP:  48; 6HR PCP: TRACE;

LAWRENCE       CLOUDY    49  38  65 NW20      29.62R

$$

MOZ001>008-011>017-020>025-030>033-038>040-044>046-053-054-270100-
...NORTHERN AND CENTRAL MISSOURI...

CITY           SKY/WX    TMP DP  RH WIND       PRES   REMARKS
ST. JOSEPH     CLOUDY    47  37  68 N18       29.62R
6HR MIN TEMP:  47; 6HR MAX TEMP:  51;

MOSBY          CLOUDY    48  37  66 N12       29.59R
WHITEMAN AFB   DRIZZLE   45  45 100 N7        29.56R FOG
6HR MIN TEMP:  44; 6HR MAX TEMP:  46; 6HR PCP:  0.36;

CLINTON        LGT RAIN  46  45  93 NW8       29.59R
SEDALIA        LGT RAIN  47  47 100 NW7       29.57R
6HR MIN TEMP:  46; 6HR MAX TEMP:  48; 6HR PCP:  0.28;

WARSAW         NOT AVBL
CHILLICOTHE      N/A     48  42  80 NW9       29.57S
6HR MIN TEMP:  47; 6HR MAX TEMP:  50; 6HR PCP:  0.02;

KIRKSVILLE     CLOUDY    47  46  97 NW6       29.53S
6HR MIN TEMP:  46; 6HR MAX TEMP:  47; 6HR PCP:  0.23;


$$

MOZ041-047>049-056>058-063>065-088>090-097-270100-
...EASTERN AND SOUTHERN MISSOURI...

CITY           SKY/WX    TMP DP  RH WIND       PRES   REMARKS
ST. LOUIS INTL HVY RAIN  63  60  90 S7        29.48R FOG
6HR MIN TEMP:  63; 6HR MAX TEMP:  66; 6HR PCP:  0.58;

SPIRIT OF STL  RAIN      61  60  97 E3        29.45F FOG
COLUMBIA       LGT RAIN  47  47 100 NW12      29.50F FOG
JEFFERSON CITY LGT RAIN  50  47  89 NW10      29.51R FOG
ROLLA          LGT RAIN  49  49 100 W10       29.49R FOG
OSAGE BEACH    RAIN      46  45  96 NW5       29.55R FOG
SPRINGFIELD    LGT RAIN  45  43  93 NW15      29.57S FOG
BRANSON        CLOUDY    46  46 100 NW8G17    29.57R FOG
JOPLIN         CLOUDY    46  45  96 NW9       29.63R FOG
WEST PLAINS    LGT RAIN  58  57  97 CALM      29.46S

$$

IAZ060-094-KSZ022-034>040-054-083-096-NEZ052-066-093-270100-
...KANSAS...SOUTHEAST NEBRASKA AND IOWA...

CITY           SKY/WX    TMP DP  RH WIND       PRES   REMARKS
TOPEKA         CLOUDY    49  38  65 NW12      29.63R
6HR MIN TEMP:  49; 6HR MAX TEMP:  53;

MANHATTAN      CLOUDY    50  36  58 N10       29.66R
EMPORIA        CLOUDY    51  38  60 NW14      29.63R
CHANUTE        CLOUDY    49  40  71 NW9       29.63R
WICHITA        PTSUNNY   53  37  54 N13       29.67S
OMAHA          CLOUDY    43  32  65 NW16      29.64F
LINCOLN        CLOUDY    46  33  60 N15G25    29.67F
FALLS CITY     CLOUDY    44  34  67 NW13G21   29.64R
LAMONI         CLOUDY    45  38  76 N14       29.58F
DES MOINES     CLOUDY    46  37  71 NW15      29.60R

$$





USA.gov is the U.S. government's official web portal to all federal, state and local government web resources and services.